Weather History for Sheridan, WY

Change the Weather History Date:

Sunday, November 3, 2013

  Actual Average Record
Temperature  
Mean Temperature 39 °F 39 °F  
Max Temperature 49 °F 53 °F 77 °F (1921)
Min Temperature 29 °F 25 °F -6 °F (1995)
Degree Days  
Heating Degree Days 26 26  
Month to date heating degree days 79 77  
Since 1 July heating degree days 941 985  
Cooling Degree Days 0 0  
Month to date cooling degree days 0 0  
Year to date cooling degree days 592 419  
Moisture  
Dew Point 28 °F    
Average Humidity 65    
Maximum Humidity 92    
Minimum Humidity 38    
Precipitation  
Precipitation 0.06 in 0.03 in 0.45 in (1927)
Month to date precipitation 0.06 0.08  
Year to date precipitation 16.78 12.97  
Sea Level Pressure  
Sea Level Pressure 29.75 in    
Wind  
Wind Speed 10 mph (WNW)    
Max Wind Speed 28 mph    
Max Gust Speed 36 mph    
Visibility 10 miles    
Events Snow    
T = Trace of Precipitation, MM = Missing Value Source: NWS Daily Summary

Daily Weather History Graph

Daily Weather History Graph

Search for Another Location

Airport:

Trip Planner

Search our weather history database for the weather conditions in past years. The results will help you decide how hot, cold, wet, or windy it might be!

Date:

Astronomy

Nov. 03, 2013 Rise Set
Actual Time 6:48 AM MST 4:53 PM MST
Civil Twilight 6:18 AM MST 5:23 PM MST
Nautical Twilight 5:43 AM MST 5:58 PM MST
Astronomical Twilight 5:09 AM MST 6:32 PM MST
Moon 6:56 AM MST (11/3) 5:08 PM MST (11/3)
Length of Visible Light 11h 05m
Length of Day
10h 04m
Waxing Crescent, 0% of the Moon is Illuminated
Nov 3
Waxing Crescent
Nov 9
First Quarter
Nov 17
Full
Nov 25
Last Quarter
Dec 2
New

Hourly Weather History & Observations

Time (MST) Temp. Windchill Dew Point Humidity Pressure Visibility Wind Dir Wind Speed Gust Speed Precip Events Conditions
12:53 AM 51.1 °F - 26.1 °F 38% 29.52 in 10.0 mi SW 15.0 mph - N/A   Clear
1:53 AM 34.0 °F 28.0 °F 28.9 °F 82% 29.57 in 10.0 mi WNW 6.9 mph - N/A   Clear
1:53 AM 42.1 °F 32.1 °F 30.0 °F 62% 29.59 in 10.0 mi NW 25.3 mph 35.7 mph N/A   Clear
2:53 AM 39.0 °F 36.8 °F 30.9 °F 73% 29.63 in 10.0 mi SE 3.5 mph - N/A   Clear
3:53 AM 35.1 °F 28.6 °F 30.0 °F 82% 29.65 in 10.0 mi West 8.1 mph - N/A   Clear
4:53 AM 35.1 °F 31.0 °F 30.0 °F 82% 29.68 in 10.0 mi West 4.6 mph - N/A   Clear
5:53 AM 34.0 °F 26.6 °F 28.9 °F 82% 29.71 in 10.0 mi West 9.2 mph - N/A   Mostly Cloudy
6:53 AM 39.0 °F 29.6 °F 30.9 °F 73% 29.70 in 10.0 mi NW 18.4 mph - N/A   Overcast
7:53 AM 37.0 °F 29.8 °F 30.0 °F 76% 29.74 in 10.0 mi WNW 10.4 mph - N/A   Overcast
8:53 AM 35.1 °F 29.3 °F 32.0 °F 89% 29.76 in 8.0 mi WNW 6.9 mph - 0.02 in Snow Light Snow
9:04 AM 35.1 °F 29.3 °F 33.1 °F 92% 29.70 in 9.0 mi WNW 6.9 mph - 0.00 in   Overcast
9:17 AM 34.0 °F 29.8 °F 32.0 °F 92% 29.71 in 6.0 mi West 4.6 mph - 0.01 in Snow Light Snow
9:26 AM 34.0 °F - 33.1 °F 96% 29.70 in 7.0 mi Calm Calm - 0.01 in   Overcast
9:53 AM 35.1 °F - 33.1 °F 92% 29.77 in 8.0 mi Calm Calm - 0.02 in Snow Light Snow
10:03 AM 35.1 °F 32.2 °F 33.1 °F 92% 29.71 in 9.0 mi SSW 3.5 mph - 0.01 in   Overcast
10:39 AM 36.0 °F 31.1 °F 33.1 °F 89% 29.71 in 10.0 mi SSW 5.8 mph - 0.02 in   Overcast
10:53 AM 36.0 °F 29.6 °F 34.0 °F 93% 29.77 in 10.0 mi SSW 8.1 mph - 0.02 in   Overcast
11:40 AM 39.9 °F 33.4 °F 32.0 °F 73% 29.71 in 10.0 mi NNW 10.4 mph - N/A   Overcast
11:53 AM 39.9 °F 30.2 °F 30.0 °F 68% 29.71 in 10.0 mi NW 20.7 mph 24.2 mph N/A   Overcast
12:53 PM 41.0 °F 31.9 °F 27.0 °F 57% 29.75 in 10.0 mi NW 19.6 mph - N/A   Overcast
1:53 PM 39.9 °F 31.4 °F 24.1 °F 53% 29.75 in 10.0 mi NW 16.1 mph - N/A   Overcast
2:53 PM 39.9 °F 32.1 °F 24.1 °F 53% 29.76 in 10.0 mi WNW 13.8 mph - N/A   Overcast
3:53 PM 37.9 °F 31.5 °F 26.1 °F 62% 29.79 in 10.0 mi West 9.2 mph - N/A   Mostly Cloudy
4:53 PM 35.1 °F 30.1 °F 24.1 °F 64% 29.81 in 10.0 mi WNW 5.8 mph - N/A   Overcast
5:53 PM 34.0 °F 26.6 °F 21.0 °F 59% 29.84 in 10.0 mi WNW 9.2 mph - N/A   Overcast
6:53 PM 34.0 °F 25.5 °F 19.0 °F 54% 29.85 in 10.0 mi WNW 11.5 mph - N/A   Mostly Cloudy
7:53 PM 33.1 °F 23.9 °F 19.0 °F 56% 29.88 in 10.0 mi NW 12.7 mph - N/A   Clear
8:53 PM 30.9 °F 22.2 °F 19.0 °F 61% 29.91 in 10.0 mi NW 10.4 mph - N/A   Clear
9:53 PM 32.0 °F 24.8 °F 18.0 °F 56% 29.93 in 10.0 mi West 8.1 mph - N/A   Mostly Cloudy
10:53 PM 30.0 °F 23.2 °F 19.9 °F 66% 29.94 in 10.0 mi West 6.9 mph - N/A   Overcast